Home > Weather > Mysen > Past weeks

Flag for Norway Past Weather in Mysen, Norway — Yesterday and Last 2 Weeks

Now
64 °F

Overcast.


Feels Like: 64 °F
Forecast: 57 / 69 °F
Wind: 7 mph from South

Location: Rygge

Current Time: Jul 27, 2016 at 3:29:45 PM

Latest Report: Jul 27, 2016 at 2:00 PM


Visibility: 25 mi

Pressure: 29.96 "Hg

Humidity: 75%

Dew Point: 56 °F

Location of MysenLocation

Past Weather in Mysen — Graph

°F

Mysen Temperature Yesterday

Maximum temperature yesterday: 68 °F (at 3:00 PM)
Minimum temperature yesterday: 60 °F (at 1:00 AM)
Average temperature yesterday: 64 °F

High & Low Weather Summary for the Past Weeks

 TemperatureHumidityPressure
High78 °F (Jul 21, 1:00 PM)99% (Jul 13, 3:00 AM)30.14 "Hg (Jul 13, 3:00 AM)
Low51 °F (Jul 17, 4:00 AM)47% (Jul 16, 9:00 PM)29.50 "Hg (Jul 12, 2:00 PM)
Average64 °F78%29.95 "Hg
* Reported Jul 12 2:00 PM — Jul 27 2:00 PM, Mysen, Weather by CustomWeather, © 2016

Note: Actual official high and low records may vary slightly from our data, if they occured in-between our weather recording intervals... More about our weather records

Advertising

Mysen Weather History for the Previous 24 Hours

Scroll right to see more
 ConditionsComfort  
Time TempWeatherWind HumidityBarometerVisibility
2:00 PM
Wed, Jul 27
64 °FOvercast.7 mph75%29.96 "Hg25 mi
1:00 PM67 °FPartly sunny.7 mph68%29.97 "Hg25 mi
12:00 PM66 °FScattered clouds.7 mph70%29.98 "Hg22 mi
11:00 AM65 °FSunny.8 mph68%29.98 "Hg19 mi
10:00 AM65 °FPassing clouds.6 mph69%29.98 "Hg25 mi
9:00 AM63 °FScattered clouds.5 mph71%29.98 "Hg22 mi
8:00 AM61 °FPassing clouds.3 mph75%29.97 "Hg28 mi
7:00 AM60 °FOvercast.3 mph78%29.97 "Hg28 mi
6:00 AM59 °FOvercast.2 mph85%29.96 "Hg28 mi
5:00 AM58 °FPartly sunny.3 mph81%29.96 "Hg31 mi
4:00 AM58 °FClear.3 mph82%29.96 "Hg31 mi
3:00 AM58 °FClear.3 mph84%29.96 "Hg31 mi
2:00 AM59 °FClear.3 mph83%29.96 "Hg31 mi
1:00 AM60 °FClear.3 mph83%29.96 "Hg31 mi
12:00 AM61 °FClear.2 mph82%29.96 "Hg28 mi
11:00 PM
Tue, Jul 26
63 °FOvercast.2 mph80%29.95 "Hg22 mi
10:00 PM63 °FPassing clouds.3 mph81%29.94 "Hg19 mi
9:00 PM66 °FOvercast.6 mph75%29.94 "Hg16 mi
8:00 PM66 °FOvercast.6 mph76%29.93 "Hg14 mi
7:00 PM65 °FSunny.7 mph76%29.93 "Hg19 mi
6:00 PM67 °FSunny.9 mph69%29.93 "Hg18 mi
5:00 PM67 °FSunny.10 mph72%29.93 "Hg12 mi
4:00 PM67 °FSunny.9 mph70%29.93 "Hg16 mi
3:00 PM68 °FSunny.10 mph69%29.92 "Hg17 mi
Weather by CustomWeather, © 2016

See weather overviewHow to use our weather pages